This is the latest recevied weather packets stored in our database for station/object W3TMB. If no packets are shown the sender has not sent any weather packets the latest 10 day(s).
| Time | Temp. | Humidity | Pressure | Rain* | Wind** | Luminosity | Snow |
|---|---|---|---|---|---|---|---|
| 1777639971 | 7.78° C | 84% | 1012.6 hPa | 0 mm | - | 329 W/m² | - |
| 1777639669 | 7.78° C | 85% | 1012.5 hPa | 0 mm | - | 323 W/m² | - |
| 1777639367 | 6.67° C | 86% | 1012.7 hPa | 0 mm | - | 282 W/m² | - |
| 1777639061 | 6.11° C | 86% | 1012.7 hPa | 0 mm | - | 281 W/m² | - |
| 1777638759 | 5.56° C | 89% | 1012.7 hPa | 0 mm | - | 248 W/m² | - |
| 1777638454 | 5.56° C | 90% | 1012.9 hPa | 0 mm | - | 239 W/m² | - |
| 1777638152 | 5° C | 95% | 1012.5 hPa | 0 mm | - | 212 W/m² | - |
| 1777637847 | 5° C | 96% | 1012.4 hPa | 0 mm | - | 208 W/m² | - |
| 1777637544 | 4.44° C | 98% | 1012.4 hPa | 0 mm | - | 184 W/m² | - |
| 1777637241 | 3.89° C | 99% | 1012.6 hPa | 0 mm | - | 114 W/m² | - |
| 1777636938 | 3.33° C | 99% | 1012.7 hPa | 0 mm | - | 111 W/m² | - |
| 1777636634 | 3.33° C | 99% | 1012.9 hPa | 0 mm | - | 120 W/m² | - |
| 1777636330 | 3.33° C | 99% | 1013 hPa | 0 mm | - | 176 W/m² | - |
| 1777636024 | 3.33° C | 99% | 1013 hPa | 0 mm | - | 154 W/m² | - |
| 1777635721 | 2.78° C | 99% | 1012.9 hPa | 0 mm | - | 114 W/m² | - |
| 1777635418 | 2.22° C | 99% | 1012.8 hPa | 0 mm | - | 116 W/m² | - |
| 1777635115 | 2.78° C | 99% | 1012.7 hPa | 0 mm | - | 55 W/m² | - |
| 1777634810 | 2.78° C | 99% | 1012.7 hPa | 0 mm | - | 101 W/m² | - |
| 1777634508 | 2.22° C | 99% | 1012.7 hPa | 0 mm | - | 83 W/m² | - |
| 1777634204 | 1.67° C | 99% | 1012.7 hPa | 0 mm | - | 46 W/m² | - |
| 1777633901 | 1.67° C | 99% | 1012.8 hPa | 0 mm | - | 44 W/m² | - |
| 1777633599 | 1.67° C | 99% | 1012.8 hPa | 0 mm | - | 42 W/m² | - |
| 1777633296 | 1.67° C | 99% | 1012.7 hPa | 0 mm | - | 42 W/m² | - |
| 1777632994 | 1.67° C | 99% | 1012.5 hPa | 0 mm | - | 38 W/m² | - |
| 1777632690 | 1.67° C | 99% | 1012.2 hPa | 0 mm | - | 30 W/m² | - |
* Rain latest hour (hover to see other rain measurements)
** Current wind speed in m/s (hover to see current wind gust speed)